FW5910 Weather Reports


time (UTC)temp
C
wind
direction
speed
KPH
gust
KPH
rain 1hr
cm
rain 24hr
cm
rain mn
cm
humidity
%
barometer
mb
20260831234345 24 278 1.6 6.4 0.00 0.00 0.00 35 1013.7
20260831233847 24 236 1.6 6.4 0.00 0.00 0.00 36 1013.7
20260831233345 25 202 1.6 4.8 0.00 0.00 0.00 35 1013.7
20260831232840 25 220 1.6 3.2 0.00 0.00 0.00 35 1013.8
20260831232344 25 272 1.6 4.8 0.00 0.00 0.00 36 1013.8
20260831231842 25 232 1.6 4.8 0.00 0.00 0.00 34 1013.8
20260831231340 25 46 1.6 9.7 0.00 0.00 0.00 34 1013.8
20260831230842 26 138 1.6 9.7 0.00 0.00 0.00 32 1013.9
20260831230345 26 270 1.6 6.4 0.00 0.00 0.00 32 1014.0
20260831225343 26 331 1.6 4.8 0.00 0.00 0.00 32 1014.0
20260831224341 26 174 1.6 6.4 0.00 0.00 0.00 32 1014.1
20260831223840 26 229 1.6 6.4 0.00 0.00 0.00 33 1014.1
20260831223340 26 250 1.6 6.4 0.00 0.00 0.00 33 1014.1
20260831222837 25 238 1.6 9.7 0.00 0.00 0.00 35 1014.0
20260831222337 25 227 3.2 9.7 0.00 0.00 0.00 34 1014.1
20260831221837 25 215 3.2 8.0 0.00 0.00 0.00 35 1014.1
20260831221337 25 37 3.2 11.3 0.00 0.00 0.00 35 1014.2
20260831215833 24 72 3.2 9.7 0.00 0.00 0.00 40 1014.3
20260831214834 25 336 1.6 4.8 0.00 0.00 0.00 36 1014.5
20260831214333 25 75 1.6 4.8 0.00 0.00 0.00 38 1014.5
20260831213832 25 9 0.0 3.2 0.00 0.00 0.00 38 1014.6
20260831213334 25 222 0.0 3.2 0.00 0.00 0.00 37 1014.6
20260831212832 24 94 1.6 6.4 0.00 0.00 0.00 41 1014.9
20260831212333 23 57 4.8 11.3 0.00 0.00 0.00 40 1014.9
20260831211333 24 76 1.6 8.0 0.00 0.00 0.00 38 1015.1
20260831210832 24 309 1.6 6.4 0.00 0.00 0.00 37 1015.2
20260831210331 23 52 1.6 6.4 0.00 0.00 0.00 39 1015.3
20260831205834 23 30 3.2 8.0 0.00 0.00 0.00 42 1015.4
20260831205330 23 128 1.6 8.0 0.00 0.00 0.00 38 1015.4
20260831204832 24 333 1.6 4.8 0.00 0.00 0.00 37 1015.5
20260831204333 24 211 1.6 4.8 0.00 0.00 0.00 39 1015.6
20260831203831 23 76 3.2 11.3 0.00 0.00 0.00 38 1015.7
20260831203330 23 350 3.2 11.3 0.00 0.00 0.00 38 1015.9
20260831202831 24 190 1.6 9.7 0.00 0.00 0.00 38 1015.7
20260831202330 23 221 3.2 9.7 0.00 0.00 0.00 40 1015.9
20260831201832 22 87 3.2 6.4 0.00 0.00 0.00 41 1015.9
20260831201333 23 83 1.6 4.8 0.00 0.00 0.00 40 1016.0
20260831200832 23 37 1.6 4.8 0.00 0.00 0.00 41 1016.1
20260831200330 22 33 1.6 6.4 0.00 0.00 0.00 40 1016.1
20260831195330 22 86 3.2 6.4 0.00 0.00 0.00 42 1016.2
20260831194837 22 336 3.2 6.4 0.00 0.00 0.00 41 1016.2
20260831194331 22 56 3.2 6.4 0.00 0.00 0.00 43 1016.2
20260831193831 22 65 1.6 6.4 0.00 0.00 0.00 43 1016.3
20260831193330 22 40 1.6 4.8 0.00 0.00 0.00 42 1016.4
20260831192830 21 89 3.2 6.4 0.00 0.00 0.00 44 1016.5
20260831192330 21 86 3.2 6.4 0.00 0.00 0.00 43 1016.4
20260831191832 21 88 3.2 6.4 0.00 0.00 0.00 42 1016.6
20260831190831 21 98 3.2 9.7 0.00 0.00 0.00 44 1016.7
20260831190334 21 69 3.2 9.7 0.00 0.00 0.00 42 1016.8
20260831185330 21 109 1.6 6.4 0.00 0.00 0.00 41 1017.1
20260831184334 21 348 3.2 9.7 0.00 0.00 0.00 41 1017.1
20260831183836 21 69 3.2 12.9 0.00 0.00 0.00 40 1017.2
20260831183333 22 201 1.6 12.9 0.00 0.00 0.00 40 1017.4
20260831182833 21 248 1.6 8.0 0.00 0.00 0.00 42 1017.4
20260831182331 21 159 3.2 8.0 0.00 0.00 0.00 41 1017.5
20260831181331 21 154 1.6 8.0 0.00 0.00 0.00 44 1017.5
20260831180834 21 311 3.2 11.3 0.00 0.00 0.00 41 1017.5
20260831180331 21 202 1.6 11.3 0.00 0.00 0.00 41 1017.6
20260831175835 21 281 1.6 6.4 0.00 0.00 0.00 43 1017.6
20260831175331 20 164 3.2 6.4 0.00 0.00 0.00 42 1017.5
20260831174332 20 268 1.6 9.7 0.00 0.00 0.00 42 1017.6
20260831173331 20 227 1.6 6.4 0.00 0.00 0.00 45 1017.7
20260831172835 19 86 1.6 8.0 0.00 0.00 0.00 44 1017.7
20260831172334 19 275 1.6 8.0 0.00 0.00 0.00 43 1017.6
20260831171830 18 184 3.2 12.9 0.00 0.00 0.00 46 1017.7
20260831171330 18 153 3.2 12.9 0.00 0.00 0.00 45 1017.8
20260831170831 18 173 3.2 11.3 0.00 0.00 0.00 45 1017.7
20260831170333 18 222 3.2 11.3 0.00 0.00 0.00 46 1017.8
20260831165831 18 243 3.2 8.0 0.00 0.00 0.00 48 1018.0
20260831165330 18 234 1.6 8.0 0.00 0.00 0.00 48 1018.0
20260831164831 18 47 1.6 6.4 0.00 0.03 0.00 48 1018.0
20260831163832 17 213 1.6 6.4 0.00 0.03 0.00 51 1018.0
20260831163330 17 206 1.6 6.4 0.00 0.03 0.00 50 1018.0
20260831162332 17 215 0.0 4.8 0.00 0.03 0.00 52 1018.1
20260831161839 17 233 1.6 4.8 0.00 0.03 0.00 54 1018.1
20260831161335 16 275 1.6 4.8 0.00 0.03 0.00 53 1018.0
20260831160832 16 238 0.0 4.8 0.00 0.03 0.00 54 1018.1
20260831160330 16 273 0.0 4.8 0.00 0.03 0.00 55 1018.0
20260831155831 16 167 0.0 3.2 0.00 0.03 0.00 58 1018.1
20260831155331 15 217 1.6 4.8 0.00 0.03 0.00 58 1018.1
20260831154830 15 235 1.6 4.8 0.00 0.03 0.00 60 1018.1
20260831154331 15 233 0.0 3.2 0.00 0.05 0.00 60 1018.3
20260831153330 15 225 0.0 3.2 0.00 0.05 0.00 60 1018.4
20260831152832 15 351 0.0 1.6 0.00 0.05 0.00 61 1018.3
20260831152329 14 351 0.0 1.6 0.00 0.05 0.00 61 1018.3
20260831151821 14 154 0.0 6.4 0.00 0.05 0.00 61 1018.1
20260831151315 13 269 1.6 6.4 0.00 0.05 0.00 62 1018.0
20260831150302 13 170 0.0 4.8 0.00 0.05 0.00 66 1018.0
20260831145808 13 238 1.6 6.4 0.00 0.05 0.00 66 1018.0
20260831145306 12 14 1.6 6.4 0.00 0.05 0.00 69 1017.9
20260831144806 12 10 0.0 1.6 0.00 0.05 0.00 78 1018.0
20260831144308 12 355 0.0 1.6 0.00 0.05 0.00 78 1017.9
20260831143809 12 131 0.0 1.6 0.00 0.05 0.00 73 1018.0
20260831143308 12 131 0.0 1.6 0.00 0.05 0.00 74 1018.0
20260831142804 12 131 0.0 1.6 0.00 0.05 0.00 75 1017.9
20260831142306 12 222 0.0 1.6 0.00 0.05 0.00 76 1018.0
20260831141304 12 220 0.0 1.6 0.00 0.05 0.00 79 1017.7
20260831140804 12 44 0.0 1.6 0.00 0.05 0.00 78 1017.7
20260831140305 11 218 0.0 0.0 0.00 0.05 0.00 78 1017.7
20260831135306 11 218 0.0 1.6 0.00 0.05 0.00 77 1017.6
20260831134803 11 218 0.0 1.6 0.00 0.05 0.00 77 1017.5
20260831134304 11 218 0.0 1.6 0.00 0.05 0.00 76 1017.5
20260831133312 11 218 0.0 0.0 0.00 0.05 0.00 77 1017.5
20260831132806 11 218 0.0 1.6 0.00 0.05 0.00 77 1017.5
20260831131806 11 218 0.0 0.0 0.00 0.05 0.00 77 1017.4
20260831131304 11 218 0.0 0.0 0.00 0.05 0.00 78 1017.4
20260831130802 11 218 0.0 0.0 0.00 0.05 0.00 79 1017.4
20260831130304 11 218 0.0 1.6 0.00 0.05 0.00 82 1017.3
20260831125803 11 217 0.0 1.6 0.00 0.05 0.00 80 1017.3
20260831124803 11 296 0.0 1.6 0.00 0.05 0.00 80 1017.3
20260831124303 11 297 0.0 1.6 0.00 0.05 0.00 79 1017.3
20260831123305 11 319 0.0 1.6 0.00 0.05 0.00 81 1017.2
20260831122804 11 318 0.0 1.6 0.00 0.05 0.00 81 1017.3
20260831122305 11 355 0.0 1.6 0.00 0.05 0.00 77 1017.1
20260831121802 11 191 0.0 0.0 0.00 0.05 0.00 82 1017.1
20260831120803 11 262 0.0 0.0 0.00 0.05 0.00 86 1017.2
20260831120302 11 262 0.0 0.0 0.00 0.05 0.00 86 1017.1
20260831115802 11 246 0.0 0.0 0.00 0.05 0.00 86 1017.1
20260831115306 11 237 0.0 0.0 0.00 0.05 0.00 85 1016.9
20260831114805 11 237 0.0 0.0 0.00 0.05 0.00 82 1017.1
20260831113805 11 237 0.0 0.0 0.00 0.05 0.00 86 1017.1
20260831112802 11 237 0.0 0.0 0.00 0.05 0.00 85 1016.9
20260831112307 11 237 0.0 0.0 0.00 0.05 0.00 83 1017.1
20260831111803 11 237 0.0 0.0 0.00 0.05 0.00 83 1016.9
20260831111303 11 237 0.0 0.0 0.00 0.05 0.00 85 1016.9
20260831110308 11 237 0.0 0.0 0.00 0.05 0.00 83 1016.8
20260831105804 11 237 0.0 0.0 0.00 0.05 0.00 84 1016.8
20260831104804 11 237 0.0 0.0 0.00 0.05 0.00 84 1016.8
20260831104304 11 241 0.0 0.0 0.00 0.05 0.00 85 1016.8
20260831103804 11 241 0.0 0.0 0.00 0.05 0.00 87 1016.8
20260831103303 11 256 0.0 0.0 0.00 0.05 0.00 85 1016.7
20260831102802 11 256 0.0 0.0 0.00 0.05 0.00 85 1016.6
20260831102306 11 256 0.0 0.0 0.00 0.05 0.00 86 1016.6
20260831101806 11 256 0.0 0.0 0.00 0.05 0.00 86 1016.6
20260831100307 12 256 0.0 0.0 0.00 0.05 0.00 84 1016.4
20260831095809 12 256 0.0 0.0 0.00 0.05 0.00 85 1016.4
20260831095309 12 256 0.0 0.0 0.00 0.05 0.00 84 1016.4
20260831094310 12 256 0.0 0.0 0.00 0.05 0.00 84 1016.4
20260831093308 12 256 0.0 0.0 0.00 0.05 0.00 84 1016.5
20260831092804 12 256 0.0 0.0 0.00 0.05 0.00 83 1016.4
20260831091757 12 256 0.0 0.0 0.00 0.05 0.00 82 1016.4
20260831091252 12 256 0.0 0.0 0.00 0.05 0.00 82 1016.5
20260831090246 12 256 0.0 0.0 0.00 0.05 0.00 81 1016.4
20260831085748 12 256 0.0 0.0 0.00 0.05 0.00 82 1016.4
20260831085245 12 256 0.0 0.0 0.00 0.05 0.00 82 1016.4
20260831084745 12 256 0.0 0.0 0.00 0.05 0.00 82 1016.4
20260831084241 12 11 0.0 0.0 0.00 0.05 0.00 81 1016.4
20260831083742 12 11 0.0 0.0 0.00 0.05 0.00 82 1016.5
20260831083237 12 11 0.0 0.0 0.00 0.05 0.00 81 1016.5
20260831082736 12 11 0.0 0.0 0.00 0.05 0.00 81 1016.5
20260831082233 12 11 0.0 0.0 0.00 0.05 0.00 81 1016.4
20260831081733 12 11 0.0 0.0 0.00 0.05 0.00 82 1016.3
20260831080731 12 11 0.0 0.0 0.00 0.05 0.00 83 1016.3
20260831080233 12 11 0.0 0.0 0.00 0.05 0.00 82 1016.2
20260831074733 12 11 0.0 0.0 0.00 0.05 0.00 82 1016.2
20260831074230 12 11 0.0 0.0 0.00 0.05 0.00 82 1016.2
20260831073734 12 11 0.0 0.0 0.00 0.05 0.00 82 1016.2
20260831073230 12 11 0.0 0.0 0.00 0.05 0.00 82 1016.2
20260831072738 12 11 0.0 0.0 0.00 0.05 0.00 81 1016.2
20260831072233 12 11 0.0 0.0 0.00 0.05 0.00 81 1016.2
20260831071732 12 11 0.0 0.0 0.00 0.05 0.00 80 1016.2
20260831071232 12 11 0.0 0.0 0.00 0.05 0.00 81 1016.1
20260831070735 12 11 0.0 0.0 0.00 0.05 0.00 80 1016.2
20260831065732 12 11 0.0 1.6 0.00 0.05 0.00 80 1016.3
20260831065231 12 273 0.0 1.6 0.00 0.05 0.00 79 1016.3
20260831064732 12 273 0.0 1.6 0.00 0.05 0.00 78 1016.3
20260831064232 12 273 0.0 1.6 0.00 0.05 0.00 78 1016.3
20260831063730 12 273 0.0 1.6 0.00 0.05 0.00 78 1016.3
20260831063233 12 273 0.0 1.6 0.00 0.05 0.00 76 1016.4
20260831062731 12 273 0.0 1.6 0.00 0.05 0.00 75 1016.3
20260831062232 12 273 0.0 1.6 0.00 0.05 0.00 74 1016.3
20260831061230 13 273 0.0 1.6 0.00 0.05 0.00 74 1016.4
20260831060731 13 165 0.0 0.0 0.00 0.05 0.00 70 1016.4
20260831060235 13 165 0.0 0.0 0.00 0.05 0.00 69 1016.4
20260831055735 13 165 0.0 0.0 0.00 0.05 0.05 68 1016.4
20260831055231 13 165 0.0 0.0 0.00 0.05 0.05 68 1016.4
20260831054733 13 164 0.0 0.0 0.00 0.05 0.05 69 1016.5
20260831054231 13 165 0.0 0.0 0.00 0.05 0.05 71 1016.4
20260831053731 13 164 0.0 0.0 0.00 0.05 0.05 72 1016.5
20260831053234 13 200 0.0 0.0 0.00 0.05 0.05 71 1016.5
20260831052731 13 200 0.0 0.0 0.00 0.05 0.05 70 1016.5
20260831051730 13 200 0.0 0.0 0.00 0.05 0.05 68 1016.6
20260831051232 13 200 0.0 0.0 0.00 0.05 0.05 70 1016.7
20260831050731 13 200 0.0 0.0 0.00 0.05 0.05 70 1016.8
20260831050234 13 200 0.0 0.0 0.00 0.05 0.05 70 1016.8
20260831045731 13 184 0.0 0.0 0.00 0.05 0.05 71 1016.8
20260831044733 13 228 0.0 0.0 0.00 0.05 0.05 71 1016.8
20260831043735 13 228 0.0 0.0 0.00 0.05 0.05 73 1016.8
20260831043230 13 229 0.0 0.0 0.00 0.05 0.05 73 1016.8
20260831041727 13 112 0.0 0.0 0.00 0.05 0.05 74 1016.7
20260831041225 14 112 0.0 1.6 0.00 0.05 0.05 73 1016.6
20260831040724 13 112 0.0 1.6 0.00 0.05 0.05 73 1016.6
20260831040224 13 112 0.0 1.6 0.00 0.05 0.05 71 1016.5
20260831035723 13 113 0.0 1.6 0.00 0.05 0.05 71 1016.4
20260831035226 13 113 0.0 0.0 0.00 0.05 0.05 72 1016.5
20260831034723 13 113 0.0 0.0 0.00 0.05 0.05 73 1016.5
20260831034224 13 113 0.0 0.0 0.00 0.05 0.05 72 1016.4
20260831033220 13 113 0.0 1.6 0.00 0.05 0.05 75 1016.5
20260831032719 13 112 0.0 1.6 0.00 0.05 0.05 76 1016.4
20260831032216 13 112 0.0 1.6 0.00 0.05 0.05 75 1016.5
20260831031715 13 112 0.0 1.6 0.00 0.05 0.05 75 1016.5
20260831031217 13 113 0.0 1.6 0.00 0.05 0.05 73 1016.5
20260831030714 13 111 0.0 1.6 0.00 0.05 0.05 73 1016.4
20260831030210 13 111 0.0 1.6 0.00 0.05 0.05 72 1016.3
20260831025708 13 111 0.0 1.6 0.00 0.05 0.05 71 1016.2
20260831024706 13 147 0.0 1.6 0.00 0.05 0.05 70 1016.1
20260831024209 13 147 0.0 1.6 0.00 0.05 0.05 70 1016.0
20260831023709 13 147 0.0 0.0 0.00 0.05 0.05 73 1016.0
20260831023205 13 147 0.0 0.0 0.00 0.05 0.05 69 1016.0
20260831022704 13 147 0.0 1.6 0.00 0.05 0.05 69 1015.9
20260831022204 13 147 0.0 1.6 0.00 0.05 0.05 72 1015.7
20260831021702 14 147 0.0 0.0 0.00 0.05 0.05 72 1015.6
20260831021203 14 147 0.0 1.6 0.00 0.05 0.05 72 1015.7
20260831020704 14 147 0.0 1.6 0.00 0.05 0.05 74 1015.6
20260831020203 14 99 0.0 0.0 0.00 0.05 0.05 69 1015.6
20260831015703 15 99 0.0 0.0 0.00 0.05 0.05 70 1015.6
20260831015203 15 99 0.0 1.6 0.00 0.05 0.05 67 1015.5
20260831014704 15 99 0.0 1.6 0.00 0.05 0.05 65 1015.5
20260831014204 15 99 0.0 1.6 0.00 0.05 0.05 65 1015.5
20260831013703 15 100 0.0 3.2 0.00 0.05 0.05 68 1015.5
20260831013203 15 99 0.0 3.2 0.00 0.05 0.05 67 1015.6
20260831012702 15 106 1.6 3.2 0.00 0.05 0.05 66 1015.6
20260831012202 15 96 1.6 3.2 0.00 0.05 0.05 63 1015.5
20260831011702 15 91 1.6 3.2 0.00 0.05 0.05 64 1015.6
20260831011203 15 78 1.6 3.2 0.00 0.05 0.05 64 1015.7
20260831010702 15 17 0.0 1.6 0.00 0.05 0.05 62 1015.6
20260831010202 15 78 0.0 1.6 0.00 0.05 0.05 64 1015.5
20260831005703 15 78 0.0 1.6 0.00 0.05 0.05 64 1015.5
20260831005204 15 78 0.0 1.6 0.00 0.05 0.05 64 1015.5
20260831004704 15 78 0.0 1.6 0.00 0.05 0.05 62 1015.5
20260831004202 15 78 0.0 1.6 0.00 0.05 0.05 62 1015.6
20260831003702 15 78 0.0 3.2 0.00 0.05 0.05 59 1015.7
20260831003202 15 78 1.6 4.8 0.00 0.05 0.05 61 1015.6
20260831002705 15 87 1.6 4.8 0.00 0.05 0.05 59 1015.6
20260831001702 15 74 0.0 1.6 0.00 0.05 0.05 59 1015.6
20260831001202 15 345 0.0 1.6 0.00 0.05 0.05 61 1015.5
20260831000702 15 288 0.0 1.6 0.00 0.05 0.05 62 1015.4
20260831000203 15 232 0.0 0.0 0.00 0.05 0.05 62 1015.4
20260830235702 15 232 0.0 0.0 0.00 0.05 0.05 62 1015.5
20260830235203 15 232 0.0 0.0 0.00 0.05 0.05 63 1015.5